Temperature
25 24 23 24 25 24 24 24 24 24 24 24 23 23 23 23 22 22 21 21 21 20 20 20 19 19 19 18 18 18 18 17 17 16 16 16 16 16 16 15 15 15 15 15
25 24 24 25 25 24 24 23 23 24 24 24 23 23 23 23 22 22 22 21 21 20 20 19 19 19 18 18 18 18 17 17 17 17 16 16 16 16 15 15 15 15 15 15
24 25 25 25 24 24 24 23 23 23 23 24 23 22 22 23 22 22 22 21 21 21 20 19 19 19 18 18 18 18 17 17 17 16 16 16 16 16 16 15 15 15 15 15
25 25 25 24 24 24 23 24 24 23 22 22 23 21 22 22 22 22 22 21 21 20 20 19 19 19 18 18 18 17 17 17 17 16 16 16 16 16 15 15 15 15 15 15
24 25 24 24 24 24 24 24 24 24 23 23 23 22 22 23 21 21 22 21 21 20 20 19 19 19 18 18 17 17 17 17 17 16 16 16 16 16 15 15 15 15 15 15
25 25 25 24 25 25 24 24 24 24 23 21 23 22 21 22 22 22 21 21 20 20 19 19 18 18 18 18 17 17 17 17 17 16 16 16 16 15 15 15 15 15 15 15
24 25 25 25 24 24 24 22 21 21 21 21 23 22 21 22 23 22 21 20 20 19 19 18 18 17 17 17 17 17 17 16 16 16 16 16 16 15 15 15 15 15 15 15
23 23 24 24 24 23 23 23 21 20 21 22 23 22 21 22 22 22 21 20 19 18 18 18 17 17 17 17 16 16 16 16 16 16 16 16 16 15 15 15 15 15 15 15
23 23 24 24 24 24 23 23 23 22 22 21 22 22 21 22 22 21 21 20 19 18 18 17 17 17 17 16 16 16 16 16 16 16 16 16 16 15 15 15 15 15 15 15
23 22 24 24 24 24 24 24 23 22 21 20 22 22 21 21 21 21 20 19 19 18 18 17 17 16 16 16 16 16 16 16 16 16 16 16 15 15 15 15 15 15 15 15
23 22 23 23 23 23 23 23 23 22 22 21 20 20 22 21 21 21 20 19 19 18 18 17 16 16 16 16 16 16 16 15 15 15 15 15 15 15 15 15 15 15 15 15
23 22 22 23 24 24 23 23 23 21 21 21 20 20 23 22 21 21 20 19 19 18 18 17 16 16 16 16 15 15 15 15 15 15 15 15 15 15 15 15 15 15 15 15
21 21 21 22 22 23 23 23 23 22 22 21 20 20 22 22 21 21 20 19 18 18 17 17 16 16 15 15 15 15 15 15 15 15 15 14 14 14 15 15 15 14 14 14
20 21 21 20 21 22 22 22 22 22 21 21 21 20 21 21 21 20 20 19 18 18 17 17 16 16 15 15 15 15 15 14 14 14 14 14 14 14 14 14 14 14 14 14
21 20 21 22 23 23 22 22 22 21 21 20 21 21 21 21 20 20 20 19 18 18 17 16 16 15 15 15 14 14 14 14 14 14 14 14 14 13 14 13 14 14 14 13
21 21 21 21 22 22 22 22 22 21 21 21 21 21 21 21 20 20 19 19 18 17 17 16 16 15 15 14 14 14 14 14 14 13 13 13 13 13 13 13 13 13 13 13
21 20 20 20 22 21 21 21 21 21 21 21 20 20 21 20 20 19 19 18 18 17 17 16 16 15 15 14 14 14 13 13 13 13 13 13 12 12 12 12 12 12 12 12
20 20 20 20 20 19 20 22 22 21 21 21 21 20 20 20 19 19 19 18 17 16 16 16 15 15 14 14 14 13 13 13 13 13 12 12 12 12 12 12 12 12 11 12
21 20 19 19 19 19 20 21 21 20 20 21 20 20 20 19 19 18 18 17 17 16 15 15 15 14 14 13 13 13 13 12 12 12 12 12 11 11 11 11 11 11 11 11
20 20 19 18 18 18 19 20 20 20 19 20 20 19 19 19 17 17 17 16 16 15 15 14 14 14 13 13 13 12 12 12 12 11 11 11 11 11 11 11 10 10 11 11
18 18 18 18 18 18 19 19 19 17 18 19 19 18 18 18 17 17 16 16 15 15 14 14 13 13 13 12 12 12 12 11 11 11 11 11 10 10 10 10 10 10 10 10
18 18 18 18 17 17 19 19 18 18 18 18 18 18 17 17 16 16 16 15 15 14 14 13 13 13 12 12 12 11 11 11 11 10 10 10 10 10 10 10 10 9 9 9
19 18 18 18 17 18 18 18 17 17 17 17 17 17 17 16 16 15 15 15 14 14 13 13 12 12 12 11 11 11 11 11 10 10 10 9 9 9 9 9 9 9 9 9
19 19 18 18 18 18 17 17 17 16 16 16 16 16 16 15 15 15 14 14 13 13 13 12 12 12 11 11 11 11 10 10 10 10 9 9 9 9 9 9 8 8 8 8
17 17 17 17 17 17 17 16 16 15 15 15 15 15 15 15 14 14 14 13 13 12 12 12 11 11 11 11 10 10 10 10 9 9 9 9 8 8 8 8 8 8 8 8
17 16 16 16 17 16 16 16 15 15 15 14 14 14 14 14 13 13 13 12 12 12 11 11 11 10 10 10 10 10 9 9 9 8 8 8 8 8 8 8 7 7 7 7
Wind_Speed
5 4 4 3 3 4 5 6 5 1 1 2 3 2 3 4 3 3 3 3 4 4 6 7 6 6 5 4 4 5 5 5 4 3 3 3 2 1 2 2 3 3 4 5
5 4 3 3 4 5 5 5 5 3 2 3 4 4 3 4 4 3 4 3 3 4 6 6 6 6 5 4 4 5 5 5 5 3 2 3 3 2 2 2 2 3 3 3
5 2 0 3 5 6 6 4 4 5 5 6 6 5 4 5 5 4 3 3 3 4 6 7 6 6 5 4 4 4 5 5 5 4 2 2 3 2 1 2 2 1 2 2
5 3 3 4 5 7 7 4 5 6 7 6 5 3 2 5 6 4 4 3 3 3 4 6 6 6 6 5 4 4 4 5 5 5 3 3 3 3 2 2 2 2 2 2
4 3 4 5 5 6 6 5 7 9 9 8 8 4 2 5 5 5 4 3 4 4 4 5 5 5 5 4 4 4 3 3 4 4 4 3 3 3 2 2 2 2 2 2
7 4 4 5 6 6 6 8 10 9 7 7 7 4 0 2 4 5 5 4 4 5 5 5 5 5 4 4 3 3 3 3 3 3 4 4 4 3 3 3 3 2 2 2
7 6 5 4 6 4 6 6 4 3 5 3 1 1 2 4 4 5 6 5 4 5 5 4 5 5 3 3 3 3 3 2 2 3 4 5 4 4 4 3 3 3 2 2
6 5 4 3 4 5 6 5 4 4 4 2 1 1 4 7 6 7 7 6 5 5 4 4 5 5 4 3 2 2 4 3 3 2 2 3 4 3 2 3 2 3 2 3
5 3 1 2 3 5 6 5 6 7 9 6 2 3 5 7 7 7 7 7 6 6 5 4 4 4 4 3 2 1 2 2 3 3 2 2 3 3 3 3 2 2 3 3
6 7 5 3 5 7 8 7 5 4 4 5 3 3 3 6 5 6 7 6 5 5 5 4 4 4 3 3 3 2 2 1 1 2 2 2 2 2 3 2 1 1 2 2
9 7 6 5 5 5 5 6 6 5 5 4 4 1 4 5 5 6 6 6 6 5 5 4 4 3 3 3 3 2 1 1 1 1 1 2 2 1 1 2 2 2 2 2
4 5 8 7 4 3 6 7 7 5 6 5 4 1 4 5 6 6 6 6 6 5 5 4 4 3 2 2 2 2 1 1 1 0 1 0 1 2 2 2 2 2 2 2
5 5 6 4 4 4 5 5 7 7 7 6 5 1 3 4 5 5 6 6 5 4 4 4 4 3 2 2 2 1 1 1 1 1 1 2 2 1 0 1 1 1 1 2
3 7 8 7 6 4 6 7 7 8 6 7 5 3 2 2 3 4 3 4 4 4 4 4 3 3 2 2 1 2 1 1 1 1 2 2 2 1 1 1 0 1 1 1
5 9 10 11 10 8 9 9 8 9 8 9 7 5 2 1 1 3 3 3 4 3 3 3 3 2 2 2 1 1 1 1 1 1 1 1 2 2 1 1 1 1 0 1
6 8 10 11 10 8 11 9 8 9 9 9 8 6 2 2 1 2 3 3 3 3 2 2 3 2 1 1 1 1 1 1 1 1 1 1 1 2 2 2 1 1 1 1
6 8 9 9 9 9 9 6 6 6 6 6 7 4 2 1 2 1 1 3 3 2 2 2 2 2 1 1 1 1 1 0 1 1 1 0 1 1 2 2 2 2 2 1
8 9 6 8 9 9 2 1 2 4 5 5 4 3 2 1 2 1 0 3 3 3 2 2 2 1 1 0 0 0 1 1 1 1 1 0 0 0 1 2 2 2 2 1
7 7 6 6 8 6 3 1 2 3 4 3 3 2 2 1 1 1 1 3 3 3 2 2 1 1 1 1 1 0 1 1 1 1 0 0 0 0 1 1 2 2 2 2
6 7 6 7 8 7 2 2 3 4 4 2 2 2 2 2 2 1 2 3 2 2 2 1 1 1 1 1 2 1 1 1 1 0 0 1 1 1 1 2 2 2 2 2
6 7 8 9 9 4 1 3 2 2 2 4 3 4 3 2 3 2 2 2 2 1 1 1 1 0 1 1 1 2 1 1 0 0 1 1 1 2 1 1 1 2 2 2
6 5 6 7 8 4 2 1 1 2 3 3 3 3 3 3 3 2 2 1 1 1 1 1 1 1 1 0 1 1 1 1 0 1 1 2 2 2 2 1 1 2 2 2
5 4 3 3 3 2 2 3 4 5 4 4 3 2 2 2 2 2 2 1 0 1 1 1 1 1 1 0 1 1 1 0 0 1 1 2 1 1 1 1 1 1 1 1
5 4 5 5 3 2 3 4 4 5 5 5 4 4 3 3 2 2 2 2 1 1 1 0 1 1 1 1 0 1 1 1 1 1 2 1 1 1 1 1 1 0 1 1
6 6 7 8 6 4 3 2 3 4 5 4 4 4 4 3 3 2 2 2 1 1 0 1 1 1 1 0 0 0 1 1 2 2 1 1 1 1 0 0 0 0 0 1
7 7 7 6 4 4 4 3 4 4 4 4 4 4 3 3 3 2 2 1 1 1 1 0 1 1 1 1 1 0 0 1 1 1 1 1 1 1 1 0 0 1 1 1
Wind_Direction
226 243 252 266 248 275 303 298 306 319 120 279 271 239 181 173 179 170 171 189 185 183 176 163 160 156 155 145 137 132 135 133 127 125 126 124 117 99 96 85 87 89 89 92
249 237 267 312 315 284 281 290 308 319 321 289 267 265 201 183 190 191 184 185 180 164 154 150 151 154 159 154 144 137 142 141 132 129 139 148 138 131 119 100 81 87 88 94
257 260 274 273 272 275 275 291 301 306 305 274 261 258 218 178 170 185 182 173 169 165 153 149 151 156 156 159 155 154 146 141 140 140 139 134 123 126 115 139 128 117 136 138
261 248 239 265 277 290 283 301 287 282 277 268 252 271 220 176 161 172 166 158 139 127 125 134 145 149 155 154 144 145 145 140 144 147 152 155 152 148 166 151 150 154 140 131
268 281 272 267 275 280 290 293 278 270 271 276 260 256 222 163 161 164 151 129 119 117 107 113 130 137 138 135 136 142 143 139 144 150 145 155 144 155 147 130 143 160 158 151
261 253 258 276 278 274 287 282 274 260 258 262 259 245 233 142 149 151 134 121 119 112 99 101 99 94 101 111 120 131 140 142 151 158 159 158 154 165 156 162 170 180 164 167
252 234 223 247 269 258 272 282 290 256 225 239 228 205 116 92 94 113 127 125 111 106 104 103 105 100 98 112 132 146 143 149 162 173 168 163 169 174 171 172 178 182 166 164
266 247 208 226 258 267 265 264 275 292 293 302 221 177 101 102 97 104 111 117 114 107 101 103 110 114 115 113 129 157 154 166 177 185 185 174 164 167 166 177 176 174 177 180
299 296 216 217 257 265 269 271 280 283 290 290 227 144 129 122 116 117 116 115 117 112 104 107 111 118 121 116 103 88 127 149 167 181 186 170 166 172 189 207 195 178 185 178
297 297 275 249 243 241 261 282 283 276 291 285 255 196 166 141 130 125 123 123 118 117 112 107 109 109 123 126 127 110 84 109 181 171 174 180 197 188 188 193 200 184 182 172
290 282 269 250 245 264 257 264 273 277 276 290 300 30 79 120 129 128 130 130 126 120 114 107 94 90 109 122 127 130 125 81 49 31 195 191 187 181 178 195 200 198 190 177
299 288 273 259 231 227 262 271 275 278 285 283 286 295 89 104 123 130 130 130 125 120 116 115 111 103 85 89 118 133 135 118 113 69 0 282 190 180 188 205 205 198 192 187
326 282 279 252 204 205 254 272 283 287 283 280 276 235 110 110 119 128 136 134 129 123 114 110 110 113 102 77 68 97 95 84 62 40 29 31 39 52 266 257 236 213 186 179
293 272 276 281 300 300 271 271 276 281 282 285 272 242 198 171 130 122 126 138 135 125 120 115 117 119 112 107 74 46 45 24 10 42 46 37 25 6 327 312 335 264 197 188
257 272 280 283 288 291 286 279 275 271 277 281 288 295 272 230 152 140 137 143 142 137 125 127 130 127 132 132 111 58 24 3 12 61 58 38 15 357 354 339 326 314 62 259
259 274 282 280 276 269 270 268 267 268 270 274 281 287 327 2 53 138 155 156 147 149 149 147 147 137 134 127 133 204 213 199 130 103 68 44 24 352 358 342 324 348 334 275
257 272 283 281 281 273 260 263 263 263 267 279 276 287 317 332 330 328 186 155 148 142 129 138 148 144 152 165 184 251 252 217 167 151 132 92 28 4 354 346 343 334 306 298
266 276 276 279 282 268 253 318 283 273 273 277 277 297 318 308 307 318 263 163 147 136 124 105 88 73 54 216 210 244 222 196 205 205 179 147 139 354 357 350 332 315 298 294
258 266 274 276 275 266 260 327 2 304 287 293 290 302 318 328 318 294 67 108 130 132 126 108 96 71 32 16 12 339 209 210 211 227 248 174 175 300 313 303 302 292 287 278
240 251 258 269 273 274 298 43 5 307 272 12 333 307 301 294 271 272 59 53 81 100 106 100 89 14 26 12 6 311 254 234 217 219 320 318 294 267 250 265 282 294 286 279
234 237 242 258 264 264 39 42 5 284 317 13 360 349 338 329 330 11 33 28 56 89 117 122 127 96 56 3 331 294 287 276 345 10 317 284 268 260 253 260 274 282 284 289
253 250 251 255 259 253 57 17 303 318 348 349 343 349 346 344 347 352 3 17 84 122 126 128 135 142 99 1 296 280 282 279 198 218 251 265 267 275 285 282 281 275 273 280
248 257 271 265 283 356 12 344 333 340 342 345 339 338 336 326 316 334 343 337 189 123 115 126 157 198 161 155 303 278 295 316 202 219 235 243 252 273 283 255 265 284 287 273
271 276 271 273 269 289 302 314 329 339 340 338 335 333 331 312 311 319 322 325 339 96 101 114 203 238 218 161 258 300 342 312 262 242 247 243 239 249 276 304 293 300 295 279
289 290 276 275 281 290 276 308 332 335 330 327 332 333 325 315 312 300 300 312 325 322 214 171 226 239 258 215 291 337 353 314 281 268 271 281 261 229 235 284 315 278 219 204
265 267 266 277 300 299 304 321 326 317 314 318 315 309 314 313 308 306 305 316 325 315 315 248 253 260 271 265 245 272 293 284 283 285 286 280 280 262 208 193 292 276 231 202
Height
1494 1497 1499 1496 1494 1497 1497 1500 1501 1498 1496 1499 1501 1501 1501 1502 1504 1506 1508 1509 1510 1512 1514 1515 1518 1520 1522 1523 1525 1526 1526 1528 1529 1530 1531 1532 1533 1535 1536 1537 1537 1538 1539 1539
1495 1497 1494 1493 1494 1495 1497 1501 1501 1498 1495 1498 1500 1500 1499 1500 1502 1505 1506 1507 1508 1510 1512 1514 1516 1518 1520 1522 1523 1525 1526 1527 1528 1529 1530 1532 1533 1534 1535 1536 1537 1538 1539 1539
1497 1495 1492 1494 1496 1498 1498 1501 1501 1502 1498 1496 1499 1503 1499 1498 1500 1503 1504 1506 1507 1509 1511 1513 1515 1517 1519 1521 1522 1524 1525 1526 1527 1528 1530 1531 1532 1533 1534 1535 1536 1537 1538 1539
1492 1490 1492 1495 1497 1498 1501 1496 1497 1499 1503 1505 1500 1513 1502 1496 1499 1501 1503 1505 1506 1508 1510 1512 1514 1516 1518 1519 1521 1522 1524 1525 1526 1527 1528 1529 1531 1532 1533 1534 1535 1536 1537 1538
1494 1491 1493 1496 1496 1495 1496 1494 1495 1496 1499 1502 1498 1506 1503 1494 1500 1500 1502 1504 1506 1508 1509 1511 1513 1515 1517 1519 1520 1521 1522 1524 1524 1525 1527 1528 1529 1531 1532 1533 1534 1535 1536 1537
1491 1490 1492 1493 1492 1493 1493 1494 1493 1492 1498 1510 1498 1503 1507 1498 1497 1498 1501 1504 1506 1508 1510 1511 1513 1514 1516 1517 1519 1520 1521 1522 1523 1524 1525 1526 1527 1529 1531 1532 1533 1534 1535 1536
1494 1490 1490 1492 1494 1494 1495 1502 1512 1512 1513 1508 1491 1499 1504 1495 1493 1496 1500 1504 1506 1508 1510 1511 1512 1514 1515 1516 1517 1518 1519 1521 1522 1523 1524 1525 1526 1528 1529 1530 1531 1532 1533 1534
1498 1498 1490 1490 1494 1497 1495 1499 1516 1522 1514 1505 1496 1501 1500 1493 1494 1497 1501 1504 1506 1508 1510 1511 1512 1513 1515 1516 1517 1517 1518 1519 1520 1521 1523 1524 1525 1526 1528 1529 1530 1531 1532 1532
1498 1497 1488 1488 1490 1493 1496 1497 1495 1504 1503 1507 1501 1499 1497 1494 1496 1499 1502 1505 1507 1509 1510 1512 1513 1513 1514 1515 1516 1517 1517 1518 1519 1520 1521 1522 1523 1524 1525 1527 1528 1529 1530 1530
1494 1500 1490 1488 1490 1490 1491 1492 1496 1505 1514 1516 1504 1500 1503 1499 1498 1499 1502 1505 1507 1509 1510 1512 1513 1513 1514 1515 1515 1516 1516 1517 1518 1519 1520 1521 1522 1523 1524 1525 1526 1527 1528 1529
1494 1499 1495 1490 1491 1493 1493 1494 1495 1498 1500 1512 1515 1510 1491 1494 1496 1499 1502 1505 1507 1509 1510 1511 1512 1513 1514 1515 1515 1515 1516 1516 1517 1517 1518 1519 1520 1521 1522 1523 1524 1525 1526 1526
1496 1498 1499 1491 1485 1486 1489 1492 1495 1506 1505 1500 1509 1511 1491 1493 1495 1498 1501 1504 1507 1508 1510 1511 1512 1513 1514 1514 1514 1515 1515 1515 1516 1517 1517 1518 1518 1519 1520 1521 1522 1523 1523 1524
1500 1501 1504 1499 1495 1490 1491 1490 1491 1494 1497 1501 1509 1510 1492 1493 1496 1498 1501 1503 1506 1508 1510 1511 1512 1513 1513 1514 1514 1514 1515 1515 1516 1516 1516 1516 1517 1517 1517 1518 1519 1520 1521 1522
1503 1501 1503 1507 1499 1492 1493 1492 1491 1495 1502 1502 1500 1501 1496 1495 1496 1498 1501 1503 1505 1507 1509 1510 1511 1512 1513 1513 1513 1513 1513 1514 1514 1515 1514 1514 1515 1515 1515 1515 1516 1517 1519 1520
1500 1501 1495 1491 1487 1488 1490 1491 1491 1494 1495 1500 1497 1495 1494 1494 1495 1497 1500 1502 1504 1506 1508 1509 1510 1511 1512 1512 1512 1512 1512 1512 1512 1513 1513 1512 1513 1513 1512 1513 1513 1514 1516 1517
1497 1498 1495 1493 1487 1487 1489 1488 1489 1491 1491 1492 1493 1494 1492 1493 1495 1497 1498 1501 1502 1505 1506 1508 1509 1510 1510 1510 1510 1511 1510 1510 1510 1510 1510 1510 1510 1510 1510 1510 1511 1512 1513 1514
1496 1497 1499 1497 1488 1488 1492 1487 1487 1488 1488 1491 1494 1494 1491 1493 1494 1496 1498 1499 1501 1503 1505 1506 1507 1508 1508 1508 1508 1509 1509 1509 1508 1508 1508 1509 1509 1509 1509 1508 1509 1509 1510 1511
1496 1497 1497 1496 1495 1502 1492 1482 1483 1486 1487 1487 1488 1489 1491 1493 1494 1495 1496 1498 1499 1501 1503 1504 1505 1506 1506 1507 1507 1507 1506 1506 1506 1506 1507 1507 1507 1507 1507 1507 1507 1507 1508 1508
1493 1496 1499 1499 1500 1494 1488 1484 1485 1488 1489 1486 1487 1489 1491 1492 1493 1494 1495 1496 1498 1499 1501 1502 1503 1504 1504 1504 1504 1504 1504 1504 1504 1504 1504 1504 1505 1504 1504 1504 1504 1505 1505 1505
1492 1493 1499 1499 1503 1501 1491 1485 1486 1488 1491 1487 1488 1489 1490 1491 1494 1495 1495 1495 1496 1497 1499 1500 1501 1502 1502 1502 1502 1502 1502 1502 1501 1501 1502 1502 1502 1501 1501 1501 1502 1502 1502 1502
1495 1495 1498 1500 1499 1492 1488 1486 1487 1497 1495 1489 1489 1490 1490 1491 1493 1494 1494 1494 1495 1496 1496 1497 1498 1499 1499 1499 1499 1499 1499 1499 1499 1499 1499 1499 1499 1499 1499 1499 1499 1499 1499 1499
1492 1495 1495 1496 1498 1497 1488 1488 1491 1492 1489 1489 1489 1490 1491 1491 1492 1492 1492 1492 1493 1493 1494 1495 1495 1496 1496 1496 1497 1496 1496 1496 1496 1496 1496 1496 1496 1496 1496 1496 1496 1497 1496 1496
1487 1489 1490 1492 1493 1488 1488 1489 1490 1489 1489 1489 1489 1489 1490 1490 1490 1491 1491 1491 1491 1491 1491 1492 1492 1493 1493 1493 1494 1493 1493 1493 1493 1493 1493 1493 1493 1494 1493 1493 1493 1493 1493 1493
1485 1485 1486 1487 1486 1487 1488 1488 1488 1489 1489 1489 1489 1488 1488 1489 1489 1489 1489 1489 1489 1489 1489 1489 1490 1490 1490 1490 1490 1490 1490 1490 1490 1490 1490 1490 1490 1490 1490 1490 1490 1490 1490 1490
1488 1487 1486 1486 1486 1486 1486 1487 1488 1488 1488 1488 1487 1487 1487 1487 1487 1487 1487 1487 1487 1487 1487 1487 1487 1487 1487 1487 1487 1487 1487 1487 1487 1487 1487 1487 1487 1487 1486 1486 1487 1486 1486 1487
1486 1486 1487 1487 1485 1486 1486 1486 1486 1487 1487 1487 1486 1485 1485 1485 1485 1485 1484 1485 1485 1485 1484 1484 1484 1484 1484 1484 1484 1484 1484 1484 1484 1483 1483 1483 1483 1483 1483 1483 1483 1483 1483 1483